Flag for Germany Weather past 2 weeks in Detmold, North Rhine-Westphalia, Germany

Now
41 °F

Clear.


Feels Like: 41 °F
Forecast: 42 / 67 °F
Wind: 1 mph from Southeast

Location: Bad Lippspringe

Current Time: May 31, 2015 at 1:00:38 AM

Latest Report: May 31, 2015 at 12:00 AM


Visibility: 12 mi

Pressure: 30.05 "Hg

Humidity: 94%

Dew point: 40 °F

Location of DetmoldLocation

Historic Weather in Detmold — Graph

°F

Detmold temperature yesterday

Maximum temperature yesterday: 55 °F (at 12:00 PM)
Minimum temperature yesterday: 46 °F (at 11:00 PM)
Average temperature yesterday: 50 °F

Past Weeks' High & Low Weather Summary

 TemperatureHumidityPressure
High69 °F (May 18, 4:00 PM)100% (May 29, 2:00 AM)30.35 "Hg (May 29, 2:00 AM)
Low35 °F (May 17, 5:00 AM)35% (May 28, 1:00 PM)29.62 "Hg (May 18, 9:00 PM)
Average52 °F72%30.05 "Hg
* Reported May 15 11:00 PM — May 30 11:00 PM, Detmold, Weather by CustomWeather, © 2015

Note: Actual official high and low records may vary slightly from our data, if they occured in-between our weather recording intervals... More about our weather records

Advertising

Detmold weather history for previous 24 hours

 ConditionsComfort  
Time TempWeatherWind HumidityBarometerVisibility
11:00 PM
Sat, May 30
46 °FPassing clouds.1 mph85%30.04 "Hg19 mi
10:00 PM47 °FClear.2 mph84%30.03 "Hg19 mi
9:00 PM50 °FScattered clouds.1 mph77%30.02 "Hg19 mi
8:00 PM50 °FPartly sunny.1 mph78%30.02 "Hg19 mi
7:00 PM53 °FLight rain. Overcast.6 mph64%30.01 "Hg28 mi
6:00 PM54 °FPassing clouds.7 mph60%29.99 "Hg7 mi
5:00 PM52 °FOvercast.7 mph70%29.98 "Hg16 mi
4:00 PM51 °FFog.9 mph67%29.99 "Hg22 mi
3:00 PM52 °FOvercast.7 mph70%29.97 "Hg18 mi
2:00 PM51 °FPartly sunny.6 mph73%29.96 "Hg17 mi
1:00 PM49 °FLight freezing rain. Light fog.10 mph74%29.93 "Hg5 mi
12:00 PM55 °FScattered clouds.8 mph59%29.89 "Hg11 mi
11:00 AM53 °FScattered clouds.8 mph58%29.88 "Hg19 mi
10:00 AM53 °FScattered clouds.7 mph69%29.88 "Hg11 mi
9:00 AM50 °FPartly sunny.6 mph82%29.87 "Hg7 mi
8:00 AM49 °FFog.3 mph89%29.85 "Hg4 mi
7:00 AM47 °FFog.5 mph92%29.84 "Hg4 mi
6:00 AM47 °FLow clouds.3 mph95%29.82 "Hg3 mi
5:00 AM47 °FOvercast.5 mph95%29.80 "Hg6 mi
4:00 AM47 °FOvercast.3 mph93%29.79 "Hg12 mi
3:00 AM47 °FOvercast.3 mph93%29.78 "Hg15 mi
2:00 AM47 °FLight rain. Low clouds.5 mph96%29.80 "Hg4 mi
1:00 AM47 °FRain. Overcast.5 mph93%29.80 "Hg1 mi
Weather by CustomWeather, © 2015

See weather overviewHow to use our weather pages